Location: Aula-Vintri
(58.3875°N, 22.4322°E)
Time: 01:39:52
(UTC+00:00)

Cosmos 2297 Rocket - Pass Details

Date: 13 October 2019
Orbit: 841 x 842 km, 71.0° (Epoch: 12 November)

Event Time Altitude Azimuth Distance (km) Brightness Sun altitude
Rises 19:58:26 0° 312° (NW) 3,408 6.4 -33.0°
Reaches altitude 10° 20:01:11 10° 323° (NW) 2,472 5.5 -33.2°
Enters shadow 20:05:46 30° 17° (NNE) 1,467 3.6 -33.6°
